sat.trackr.live / text

‹ back to catalog

STARLINK-33855

NORAD 64335 · 2025-124U

PAYLOAD ACTIVE UNKNOWN

§ Identity

Operator
Country
US
Launch date
2025-06-10
Launch site
AFETR
Launch vehicle
Mass (kg)
RCS (m²)

Purposes: comms

External: N2YO · Heavens-Above · Gunter

§ Orbital elements

Epoch: 2026-05-25T03:14:25.671840Z

Period
94.27 min
Inclination
43.0039°
Eccentricity
0.0001757
Mean motion
15.27603527 rev/d
Perigee alt
481.8 km
Apogee alt
484.2 km
Semi-major
6,861.1 km
B*
7.2940e-4
RAAN
49.8160°
Arg perigee
255.5598°
Mean anomaly
104.5059°
Rev number
5,347

§ Raw data

STARLINK-338551 64335U 25124U   26145.13501935  .00019878  00000+0  72940-3 0  99972 64335  43.0039  49.8160 0001757 255.5598 104.5059 15.27603527 53470

JSON: /api/v1/satellites/64335 · /tle

For live sub-satellite position, see the globe view (requires WebGL).

§ Visibility from observer

Set your observer location to see the next 7 days of passes ≥ 10°. The values pass through the URL so the page stays shareable.

No JS? Fill the form by hand. The geolocation button needs JavaScript.